Temperature
17 17 18 18 18 18 18 18 18 18 18 18 18 18 18 18 18 18 18 18 18 18 18 18 18 18 18 18 18 18 18 18 18 18 18 18 18 18 18 18 18 17 18
17 17 18 18 18 18 18 18 18 18 18 18 18 18 18 18 18 18 18 18 18 17 17 17 18 18 18 18 18 18 18 18 18 18 18 18 18 18 18 18 18 18 18
17 17 17 17 17 17 18 18 18 18 18 18 18 18 18 17 17 17 17 17 17 17 17 17 17 17 17 17 17 18 18 18 18 18 18 17 17 18 18 18 18 18 18
17 17 17 17 17 17 18 18 17 17 17 17 17 17 17 17 17 17 17 17 17 17 17 17 17 17 17 17 17 17 18 18 18 18 17 17 17 18 18 18 18 18 18
17 17 17 17 17 17 17 17 17 17 17 17 17 17 17 17 17 17 16 16 16 17 17 17 17 17 17 17 17 17 17 18 18 17 17 17 17 18 18 18 18 18 18
17 17 17 17 17 17 17 17 17 17 17 17 17 17 16 16 16 16 16 16 16 16 16 16 17 17 17 17 17 17 17 17 17 17 17 17 17 17 18 18 18 18 18
17 16 16 17 17 17 17 17 17 17 17 16 16 16 16 16 16 16 16 16 16 16 16 16 16 16 16 17 17 17 17 17 16 17 17 17 17 17 17 17 17 18 18
17 16 16 17 17 17 17 16 16 16 16 16 16 16 16 16 16 16 16 16 16 16 16 16 16 16 16 16 17 17 17 17 17 16 17 17 17 17 17 17 17 17 17
17 17 16 16 16 16 16 16 16 16 16 16 16 16 16 16 16 16 15 15 15 15 15 16 16 16 16 16 16 17 17 17 16 16 16 16 17 17 17 17 17 17 17
17 16 16 16 16 16 16 16 16 16 16 16 16 16 16 16 15 15 15 15 15 15 15 15 16 16 16 16 16 16 17 17 16 16 16 16 17 17 17 17 17 17 17
17 17 16 16 16 16 16 16 16 16 16 16 16 16 15 15 15 15 15 15 15 15 15 15 15 15 16 16 16 16 16 16 16 16 16 17 17 17 17 17 17 17 17
17 17 17 16 16 16 16 16 16 16 15 15 15 15 15 15 15 15 15 15 15 15 15 15 15 15 16 16 16 16 16 16 16 16 16 17 17 17 17 17 17 17 17
17 17 17 16 16 16 16 16 16 16 16 16 15 15 15 15 15 15 15 15 15 15 15 15 15 15 16 16 16 16 16 16 16 16 16 16 17 17 17 17 17 17 17
17 17 17 17 17 16 16 16 16 16 16 16 15 15 15 15 15 15 15 15 15 15 15 15 15 15 16 16 16 16 16 16 16 16 16 16 16 16 16 17 17 17 17
17 17 17 17 17 17 16 16 16 16 16 16 15 15 15 15 15 15 15 14 15 15 15 15 15 15 15 16 16 16 16 16 16 16 16 16 16 16 16 16 16 17 17
17 17 17 17 16 16 16 16 16 16 15 15 15 15 15 15 15 14 15 14 14 14 15 15 15 15 15 15 15 15 15 15 15 15 15 15 16 16 16 16 16 17 17
17 17 17 17 16 16 16 16 16 15 15 15 15 15 15 14 15 14 14 14 14 14 15 15 15 15 15 15 15 15 15 15 15 15 15 15 15 16 16 16 16 16 17
17 17 17 17 16 16 16 16 16 15 15 15 15 15 14 14 14 14 14 14 14 14 14 14 14 15 15 15 15 15 15 15 15 15 15 15 15 15 16 16 16 16 16
17 17 17 17 16 16 16 16 15 15 15 15 14 14 14 14 14 14 14 14 14 14 14 14 14 15 15 15 15 15 15 15 15 15 15 15 15 15 15 15 16 16 16
17 17 17 17 16 16 16 16 15 15 15 15 14 14 14 14 14 14 14 14 14 14 14 14 14 14 14 14 15 15 15 15 15 15 15 15 15 15 15 15 15 15 16
17 17 17 17 16 16 16 16 15 15 15 15 14 14 14 14 14 14 14 14 14 14 14 14 14 14 14 14 15 15 15 15 15 15 15 15 15 15 15 15 15 15 15
17 17 17 17 16 16 16 16 15 15 15 15 14 14 14 14 14 14 14 14 14 14 14 14 14 14 14 14 15 15 16 16 15 15 15 15 15 15 15 15 15 15 15
18 17 17 17 17 16 16 16 16 15 15 15 14 14 14 14 14 14 14 14 14 14 14 14 14 14 14 14 14 15 16 16 15 15 15 15 14 15 15 15 15 15 15
18 17 17 17 17 16 16 16 16 15 15 15 15 14 14 14 14 14 14 14 14 14 14 14 14 14 14 14 14 14 14 14 15 15 15 15 15 14 15 15 15 15 15
18 17 17 17 17 16 16 16 16 15 15 15 15 14 14 14 14 14 14 14 14 14 14 14 14 14 14 14 14 14 14 14 15 15 15 15 15 15 14 14 14 15 15
18 17 17 17 17 17 16 16 16 15 15 15 15 15 14 14 14 14 14 14 14 14 14 14 14 14 14 14 14 14 14 14 14 14 15 15 15 14 14 14 14 14 14
Wind_Speed
5 7 10 10 11 12 12 13 12 12 12 12 12 11 10 10 10 10 9 9 9 9 8 8 7 7 7 6 6 6 6 5 5 5 5 4 4 4 3 2 2 1 3
7 9 10 11 12 13 13 13 13 12 12 12 11 11 10 10 10 10 9 9 8 8 8 7 7 6 6 6 5 5 5 5 4 4 3 1 3 4 3 3 4 4 2
8 10 11 12 12 13 13 13 13 12 12 12 12 11 10 10 10 9 8 8 7 8 7 7 7 6 6 5 5 5 5 4 4 3 4 1 3 4 4 3 3 3 2
10 10 12 13 13 13 13 13 13 12 12 12 12 11 10 10 9 9 8 8 7 7 7 7 6 6 6 5 5 5 5 4 4 5 3 3 3 6 4 3 3 3 2
11 11 13 13 12 12 13 13 13 13 12 12 11 11 10 9 9 9 8 8 7 7 7 7 6 6 5 5 5 5 4 4 3 4 4 3 3 5 4 3 3 3 3
11 12 13 13 13 13 13 13 13 12 12 11 11 10 9 9 8 8 8 7 7 7 7 7 6 6 6 5 5 5 5 4 4 3 4 3 3 4 3 3 3 3 4
11 12 13 13 13 13 13 12 12 11 11 10 9 9 8 8 8 7 7 7 6 6 6 6 6 6 6 5 5 5 5 4 3 2 3 3 4 4 3 3 3 3 3
10 11 12 12 12 12 12 11 11 10 10 9 8 7 7 7 7 7 6 6 6 6 5 5 5 5 5 5 5 4 4 6 2 2 2 3 5 4 2 2 3 3 3
10 10 10 11 11 11 11 10 9 9 8 7 7 7 6 7 7 6 6 6 6 6 5 5 5 5 4 4 4 4 4 4 4 2 2 3 6 4 3 2 3 3 2
9 8 8 9 8 9 9 9 8 7 7 6 6 6 5 4 4 4 4 7 6 6 5 5 4 4 4 4 4 3 3 5 2 2 3 5 6 5 3 3 3 2 2
8 8 8 7 7 7 7 7 6 6 5 3 5 4 1 4 4 3 8 7 7 6 6 5 4 3 1 2 2 2 4 2 2 3 3 7 6 5 4 3 2 2 2
8 7 7 6 6 6 5 5 4 4 4 4 5 4 4 4 4 4 5 4 5 4 2 3 2 2 4 0 2 3 1 2 2 2 4 7 6 5 4 3 2 2 2
7 6 6 6 5 4 4 4 4 4 4 4 5 5 4 4 3 3 3 2 2 2 2 1 2 2 3 2 3 2 3 3 2 2 4 6 5 4 3 3 2 2 2
7 6 5 4 4 4 4 4 3 3 4 4 5 6 5 4 4 4 3 4 4 3 3 3 3 2 3 2 2 2 2 2 2 2 4 5 5 4 3 2 2 2 1
7 6 5 3 4 4 4 3 3 4 4 5 5 5 5 4 4 4 3 4 4 4 2 2 2 3 3 3 3 3 2 2 2 2 2 5 4 4 3 3 3 2 1
6 6 5 4 3 3 3 3 3 4 3 4 5 5 5 5 4 4 4 4 4 4 4 3 3 2 2 2 3 3 2 2 2 2 2 3 4 4 4 3 3 3 2
6 6 5 4 3 3 3 3 3 3 4 5 4 5 5 5 5 4 4 4 4 4 3 3 3 3 2 2 2 2 2 2 2 1 2 2 2 5 4 4 3 3 3
5 5 5 4 4 4 3 3 3 4 4 4 4 5 5 6 6 5 4 4 5 4 4 3 3 2 2 2 2 2 2 2 2 2 2 2 2 3 4 6 5 4 3
5 5 5 5 4 4 4 3 3 4 4 4 5 5 5 6 6 5 4 4 5 4 4 3 3 3 3 3 2 2 2 2 2 2 2 3 3 2 2 4 4 4 4
5 5 5 5 4 5 4 3 3 4 4 4 5 5 6 5 6 5 4 5 5 4 3 3 4 3 3 2 2 2 2 2 2 3 3 3 4 3 3 3 1 4 4
5 5 5 5 5 4 3 3 2 3 3 3 4 5 5 5 6 5 4 5 4 4 4 4 3 3 3 3 1 2 2 3 3 3 3 3 3 4 3 3 2 2 2
6 5 5 5 5 4 2 2 2 2 2 3 3 4 5 5 6 5 5 4 4 3 4 4 3 3 3 3 3 1 1 2 2 3 3 3 4 3 3 4 3 2 1
6 5 5 5 5 3 3 3 3 3 2 2 2 3 4 5 5 5 5 4 4 4 4 4 4 4 3 3 4 3 2 2 1 2 3 3 4 3 3 3 4 3 2
5 5 5 5 5 4 3 3 3 2 2 2 2 2 2 4 4 5 5 4 4 4 3 4 4 3 3 3 2 3 3 2 2 1 1 3 3 3 4 3 4 4 3
6 5 5 5 5 4 3 3 2 2 2 2 2 2 2 3 4 5 5 4 4 4 4 4 4 4 3 3 3 2 2 1 2 2 1 2 2 3 3 3 3 3 3
6 5 5 5 5 4 3 3 2 2 2 2 2 2 2 2 3 4 4 4 4 4 4 4 4 4 3 3 3 2 2 2 3 2 2 3 3 3 3 2 2 3 3
Wind_Direction
107 103 106 108 110 109 109 109 109 107 104 103 103 104 106 103 97 92 85 80 77 73 71 67 63 61 60 59 54 50 51 50 45 40 35 37 37 29 37 20 307 133 90
116 110 111 110 109 108 106 105 103 101 99 97 96 98 99 97 93 89 83 78 75 71 66 61 58 56 54 51 47 44 42 37 31 26 10 52 65 39 36 26 354 29 60
115 111 111 105 106 105 104 101 98 96 95 94 93 91 90 89 86 82 78 74 70 67 63 57 50 46 46 45 41 38 34 29 18 355 294 339 81 66 35 31 19 21 14
110 108 103 103 102 102 101 100 98 94 91 90 88 86 84 82 80 75 71 67 62 59 55 51 45 40 39 38 35 37 33 26 13 314 303 17 36 62 29 25 18 12 349
107 104 100 101 100 99 98 97 95 92 88 86 83 81 77 75 71 66 62 58 54 50 46 42 38 37 37 37 35 34 29 18 338 308 5 9 25 49 18 16 15 11 0
106 103 100 99 97 97 95 94 93 92 88 85 82 78 72 68 64 60 57 52 45 42 39 36 30 31 33 36 34 29 24 4 299 6 4 359 27 43 14 13 13 19 17
106 102 101 96 95 94 92 91 90 90 87 84 79 74 68 62 55 49 45 42 35 33 33 32 27 27 25 29 30 26 20 339 337 5 360 6 26 21 13 20 23 28 30
109 104 104 99 95 95 93 91 89 87 84 80 74 68 62 57 51 44 39 36 29 27 25 28 28 25 26 26 25 27 15 328 352 10 12 17 25 4 7 22 23 24 31
109 106 104 107 106 102 94 88 86 84 81 76 69 61 55 50 49 45 40 32 23 21 20 23 23 23 26 31 30 25 16 338 330 1 357 28 32 18 27 29 30 25 26
112 110 106 102 104 107 106 96 87 80 74 71 66 58 59 77 75 59 45 41 23 22 22 20 20 23 29 36 31 16 330 282 333 344 356 38 33 20 27 45 43 31 34
114 114 111 107 104 102 98 101 102 97 80 94 95 82 22 36 42 55 45 36 26 26 26 24 21 24 344 118 65 342 285 319 4 338 14 35 21 15 18 43 55 38 29
120 117 114 113 109 104 94 96 84 76 69 49 47 46 29 31 32 25 82 55 36 22 39 39 343 251 266 22 133 229 303 346 327 348 47 36 19 15 14 29 40 39 25
123 118 116 116 109 101 94 80 72 70 66 51 38 41 28 21 21 20 15 49 30 353 7 34 275 344 341 2 341 346 1 342 338 358 51 41 20 15 11 17 24 38 22
119 118 118 118 116 107 94 81 71 63 53 46 37 31 29 23 9 21 12 13 3 15 7 351 346 357 340 334 334 347 14 344 347 1 58 48 19 10 8 11 19 31 44
122 120 118 120 113 106 93 83 74 56 37 47 39 28 31 24 18 19 23 18 7 5 4 354 343 4 347 352 351 351 359 12 357 358 64 73 30 14 10 17 26 30 73
126 125 126 124 112 107 97 85 70 64 58 43 43 31 30 31 24 15 24 20 14 9 2 348 1 353 349 1 1 1 351 4 12 10 18 94 91 57 35 26 29 38 55
131 130 126 121 119 102 87 76 74 68 58 53 46 32 36 34 24 22 16 21 16 10 8 4 11 357 3 6 8 6 16 14 16 33 27 18 82 101 72 45 37 38 41
135 134 131 133 124 105 91 84 79 68 63 65 54 39 38 37 28 20 16 20 18 13 14 15 8 15 23 9 11 16 28 43 30 24 33 43 40 45 84 73 54 48 45
141 140 138 131 121 105 98 95 78 78 75 67 57 45 37 35 26 26 20 14 18 20 19 14 22 12 23 16 19 29 29 43 45 37 38 40 50 44 43 92 92 76 64
146 142 135 130 127 118 114 101 92 85 83 70 57 47 36 29 26 24 25 22 20 24 24 25 33 25 20 15 25 51 56 76 60 45 31 41 39 34 35 33 71 110 101
154 151 141 141 134 129 114 113 106 100 94 82 62 50 39 30 26 27 21 26 16 27 23 23 28 35 26 12 12 74 93 88 67 66 40 29 41 35 33 32 25 31 125
159 161 155 148 141 135 115 101 93 96 90 74 64 51 35 30 25 22 26 26 27 26 27 24 18 5 28 12 346 344 109 123 71 60 54 38 33 35 30 31 34 36 32
165 163 159 154 146 141 138 123 119 120 129 112 81 52 33 28 26 19 19 20 17 21 28 19 11 6 6 18 13 353 352 27 26 74 47 42 35 24 25 27 29 31 39
167 163 163 155 153 150 155 148 128 109 89 70 50 49 48 40 33 23 19 19 21 23 24 18 21 7 358 6 21 8 1 356 327 6 63 45 34 27 22 21 25 33 34
161 162 162 156 152 150 154 140 150 109 86 86 77 61 48 51 37 30 21 22 26 26 22 19 17 9 6 359 1 3 3 341 312 327 345 359 16 24 19 18 20 28 23
156 158 156 153 145 146 154 154 144 111 97 91 66 48 44 52 37 34 20 21 26 26 25 21 22 27 15 9 356 357 346 334 338 333 327 334 352 359 4 15 9 23 22
Height
1532 1533 1533 1534 1535 1536 1537 1538 1538 1539 1539 1539 1540 1540 1540 1541 1541 1541 1542 1542 1542 1542 1541 1541 1541 1541 1541 1540 1540 1539 1539 1539 1538 1538 1537 1536 1535 1534 1534 1534 1534 1535 1534
1533 1534 1534 1535 1536 1537 1538 1539 1539 1540 1540 1541 1541 1541 1542 1542 1542 1542 1543 1542 1542 1542 1542 1542 1542 1541 1541 1541 1540 1540 1540 1539 1539 1538 1537 1537 1536 1535 1535 1535 1535 1535 1534
1535 1535 1536 1537 1538 1539 1539 1540 1541 1541 1541 1542 1542 1542 1543 1543 1543 1543 1543 1543 1543 1543 1543 1542 1542 1542 1541 1541 1541 1540 1540 1539 1539 1538 1538 1538 1537 1536 1535 1535 1534 1534 1534
1536 1537 1538 1538 1539 1540 1541 1541 1542 1542 1543 1543 1543 1543 1544 1544 1544 1544 1544 1544 1544 1543 1543 1543 1542 1542 1542 1541 1541 1540 1540 1540 1539 1539 1540 1539 1538 1537 1536 1535 1534 1534 1533
1538 1539 1539 1540 1541 1542 1542 1543 1543 1544 1544 1544 1544 1544 1544 1544 1544 1544 1544 1544 1544 1544 1543 1543 1543 1542 1542 1541 1541 1541 1540 1540 1540 1540 1539 1538 1538 1537 1536 1535 1534 1533 1532
1540 1541 1541 1542 1543 1543 1544 1544 1545 1545 1545 1545 1545 1545 1545 1545 1545 1545 1545 1545 1544 1544 1543 1543 1543 1542 1542 1541 1541 1541 1540 1540 1540 1540 1539 1539 1538 1537 1536 1535 1535 1533 1531
1542 1543 1543 1543 1544 1545 1545 1546 1546 1546 1546 1547 1547 1547 1546 1546 1546 1546 1545 1545 1544 1544 1543 1543 1543 1542 1542 1541 1541 1541 1540 1540 1541 1540 1539 1539 1537 1537 1536 1536 1535 1534 1533
1544 1545 1545 1545 1546 1547 1547 1547 1547 1547 1548 1548 1547 1547 1547 1547 1547 1546 1546 1545 1545 1544 1544 1543 1543 1542 1542 1541 1541 1541 1541 1540 1541 1541 1540 1539 1537 1536 1536 1536 1536 1535 1535
1545 1546 1548 1548 1548 1548 1548 1549 1549 1549 1549 1549 1549 1548 1548 1548 1547 1547 1546 1545 1545 1544 1544 1543 1543 1542 1542 1541 1541 1541 1541 1541 1541 1541 1540 1539 1536 1535 1536 1536 1536 1536 1536
1547 1548 1549 1550 1551 1551 1551 1550 1550 1550 1550 1550 1550 1549 1549 1548 1548 1547 1547 1545 1545 1544 1544 1543 1543 1542 1542 1541 1541 1541 1541 1541 1541 1541 1540 1539 1537 1536 1537 1537 1537 1537 1537
1549 1550 1551 1552 1552 1553 1553 1552 1552 1552 1552 1552 1552 1550 1550 1551 1550 1549 1547 1546 1545 1544 1544 1543 1543 1542 1542 1541 1541 1541 1541 1542 1541 1541 1540 1539 1538 1537 1537 1537 1537 1537 1537
1550 1552 1552 1553 1554 1554 1554 1554 1554 1554 1554 1554 1553 1552 1552 1551 1550 1549 1547 1546 1545 1545 1544 1543 1543 1543 1543 1543 1542 1541 1542 1541 1541 1541 1540 1538 1538 1538 1538 1537 1537 1537 1537
1552 1552 1553 1554 1555 1556 1556 1556 1556 1555 1554 1554 1554 1553 1552 1551 1551 1550 1549 1548 1547 1546 1546 1544 1544 1544 1544 1543 1542 1542 1542 1541 1541 1541 1540 1538 1538 1538 1538 1538 1537 1538 1538
1553 1553 1555 1556 1556 1557 1557 1557 1557 1557 1556 1555 1554 1554 1553 1552 1551 1550 1549 1548 1547 1546 1545 1545 1544 1544 1544 1544 1543 1542 1542 1541 1541 1540 1539 1538 1538 1538 1538 1538 1538 1538 1538
1554 1554 1555 1556 1557 1558 1558 1557 1558 1557 1557 1556 1554 1554 1553 1552 1552 1551 1550 1548 1547 1547 1546 1545 1545 1544 1544 1543 1543 1542 1542 1541 1540 1540 1539 1538 1538 1538 1538 1538 1538 1538 1538
1555 1556 1556 1557 1558 1558 1559 1559 1558 1557 1556 1556 1555 1555 1554 1553 1552 1551 1550 1549 1548 1547 1546 1545 1545 1544 1543 1543 1542 1541 1541 1541 1540 1540 1540 1539 1538 1538 1538 1538 1538 1538 1538
1556 1557 1557 1558 1558 1559 1559 1559 1558 1558 1558 1557 1556 1556 1555 1553 1553 1552 1551 1550 1548 1547 1546 1545 1545 1544 1543 1543 1542 1541 1541 1540 1540 1540 1540 1540 1539 1539 1538 1538 1538 1538 1538
1556 1557 1558 1558 1559 1559 1559 1559 1559 1559 1558 1557 1557 1556 1555 1554 1553 1552 1551 1550 1549 1547 1546 1545 1545 1544 1544 1543 1542 1541 1541 1540 1540 1540 1540 1540 1539 1539 1539 1538 1538 1538 1538
1557 1558 1559 1559 1560 1559 1559 1559 1559 1559 1558 1558 1558 1557 1556 1555 1554 1553 1551 1550 1549 1548 1547 1546 1545 1545 1544 1543 1542 1541 1541 1540 1540 1540 1540 1540 1540 1539 1539 1539 1538 1538 1537
1557 1558 1559 1560 1560 1560 1560 1560 1560 1560 1560 1559 1558 1557 1556 1555 1554 1553 1552 1551 1549 1549 1547 1547 1545 1545 1544 1543 1543 1542 1541 1541 1541 1540 1540 1540 1540 1539 1539 1539 1538 1538 1537
1557 1559 1559 1560 1560 1560 1561 1561 1561 1561 1561 1560 1559 1558 1557 1556 1554 1553 1552 1551 1550 1549 1548 1547 1547 1546 1545 1544 1544 1543 1542 1542 1542 1541 1540 1540 1540 1539 1539 1539 1538 1538 1537
1557 1558 1560 1560 1561 1561 1561 1562 1561 1561 1561 1560 1559 1559 1558 1556 1555 1554 1553 1552 1551 1549 1548 1548 1547 1546 1546 1545 1545 1544 1543 1544 1543 1542 1541 1541 1540 1540 1539 1539 1538 1538 1537
1557 1558 1559 1560 1561 1561 1562 1562 1562 1561 1562 1561 1561 1560 1558 1557 1556 1555 1554 1553 1551 1551 1549 1548 1547 1547 1546 1546 1545 1545 1544 1543 1543 1543 1542 1542 1541 1540 1540 1539 1538 1538 1537
1557 1558 1559 1560 1561 1562 1562 1562 1563 1563 1563 1562 1562 1560 1559 1558 1556 1555 1554 1553 1552 1551 1550 1549 1548 1547 1547 1546 1546 1545 1545 1545 1544 1544 1543 1542 1541 1540 1540 1539 1538 1538 1537
1557 1558 1559 1560 1561 1562 1562 1562 1563 1563 1563 1562 1562 1561 1560 1559 1557 1556 1555 1554 1553 1552 1551 1550 1549 1548 1548 1547 1547 1546 1545 1545 1545 1544 1543 1543 1542 1541 1540 1539 1538 1538 1537
1556 1557 1559 1560 1561 1561 1562 1563 1563 1563 1563 1563 1562 1562 1561 1560 1558 1557 1556 1555 1554 1553 1552 1550 1550 1549 1548 1547 1547 1546 1546 1546 1545 1544 1543 1542 1542 1541 1540 1539 1538 1537 1537